DAL127 KATL-KLAS

Flight info

Callsign DAL127
Flight time 1h 20m
Altitude 28000
Route NASSA2 YAALL J14 LIT MLC PNH GUP HAHAA RKSTR4
Aircraft A321/M-SDE3FGHIRWY/LB1

Departure

Time 2026-05-05 20:58
Airport Hartsfield Jackson Atlanta International Airport (KATL)

Arrival

Time 2026-05-05 22:19
Airport Harry Reid International Airport (KLAS)
Time Latitude Longitude Altitude Speed Heading
2026-05-05 20:15 33.63958 -84.43540 1007 ft 0 kts 269°
2026-05-05 20:46 33.63958 -84.43521 1006 ft 4 kts 269°
2026-05-05 20:46 33.63956 -84.43490 1006 ft 4 kts 288°
2026-05-05 20:46 33.63944 -84.43465 1006 ft 4 kts 331°
2026-05-05 20:47 33.63928 -84.43458 1006 ft 0 kts 360°
2026-05-05 20:51 33.63937 -84.43459 1006 ft 5 kts 359°
2026-05-05 20:51 33.64010 -84.43458 1006 ft 12 kts
2026-05-05 20:51 33.64095 -84.43448 1006 ft 12 kts
2026-05-05 20:52 33.64179 -84.43447 1006 ft 12 kts 359°
2026-05-05 20:52 33.64264 -84.43449 1006 ft 12 kts 359°
2026-05-05 20:52 33.64349 -84.43451 1006 ft 12 kts 359°
2026-05-05 20:52 33.64428 -84.43419 1006 ft 12 kts 43°
2026-05-05 20:53 33.64458 -84.43327 1006 ft 13 kts 86°
2026-05-05 20:53 33.64461 -84.43189 1007 ft 20 kts 89°
2026-05-05 20:53 33.64461 -84.43018 1006 ft 21 kts 89°
2026-05-05 20:53 33.64464 -84.42839 1006 ft 22 kts 92°
2026-05-05 20:54 33.64470 -84.42652 1006 ft 23 kts 88°
2026-05-05 20:54 33.64470 -84.42457 1006 ft 24 kts 89°
2026-05-05 20:54 33.64479 -84.42253 1006 ft 23 kts 76°
2026-05-05 20:54 33.64539 -84.42086 1006 ft 23 kts 87°
2026-05-05 20:55 33.64545 -84.41893 1006 ft 24 kts 91°
2026-05-05 20:55 33.64545 -84.41693 1007 ft 24 kts 89°
2026-05-05 20:55 33.64546 -84.41489 1007 ft 25 kts 89°
2026-05-05 20:55 33.64544 -84.41276 1007 ft 26 kts 90°
2026-05-05 20:56 33.64544 -84.41055 1006 ft 27 kts 92°
2026-05-05 20:56 33.64542 -84.40867 1006 ft 16 kts 83°
2026-05-05 20:56 33.64568 -84.40738 1006 ft 15 kts 89°
2026-05-05 20:56 33.64570 -84.40618 1005 ft 10 kts 82°
2026-05-05 20:57 33.64599 -84.40575 1005 ft 7 kts 20°
2026-05-05 20:57 33.64652 -84.40578 1004 ft 9 kts 338°
2026-05-05 20:57 33.64677 -84.40640 1003 ft 10 kts 278°
2026-05-05 20:57 33.64677 -84.40909 1006 ft 65 kts 269°
2026-05-05 20:58 33.64679 -84.41701 1007 ft 123 kts 270°
2026-05-05 20:58 33.64673 -84.42924 1012 ft 168 kts 268°
2026-05-05 20:58 33.64655 -84.44326 1621 ft 162 kts 269°
2026-05-05 20:58 33.64700 -84.45696 2272 ft 168 kts 276°
2026-05-05 20:59 33.64953 -84.47075 2842 ft 173 kts 276°
2026-05-05 20:59 33.65218 -84.48562 3079 ft 192 kts 276°
2026-05-05 20:59 33.65512 -84.50215 3212 ft 213 kts 277°
2026-05-05 20:59 33.65840 -84.52044 3359 ft 236 kts 277°
2026-05-05 21:00 33.66205 -84.54069 3506 ft 260 kts 278°
2026-05-05 21:00 33.66598 -84.56225 4089 ft 267 kts 279°
2026-05-05 21:00 33.67004 -84.58426 4741 ft 272 kts 278°
2026-05-05 21:00 33.67404 -84.60654 5419 ft 273 kts 277°
2026-05-05 21:01 33.67786 -84.62869 6093 ft 275 kts 277°
2026-05-05 21:01 33.68167 -84.65111 6819 ft 273 kts 277°
2026-05-05 21:01 33.68543 -84.67338 7546 ft 272 kts 278°
2026-05-05 21:01 33.68915 -84.69555 8277 ft 270 kts 278°
2026-05-05 21:02 33.69288 -84.71761 9008 ft 269 kts 279°
2026-05-05 21:02 33.70017 -84.77606 10666 ft 271 kts 268°
2026-05-05 21:02 33.69967 -84.87572 11667 ft 330 kts 270°
2026-05-05 21:02 33.69946 -84.99348 13038 ft 364 kts 270°
2026-05-05 21:03 33.69900 -85.11596 15127 ft 368 kts 270°
2026-05-05 21:03 33.69847 -85.24085 16865 ft 379 kts 270°
2026-05-05 21:03 33.69714 -85.36887 18447 ft 389 kts 270°
2026-05-05 21:03 33.69545 -85.49963 20050 ft 392 kts 270°
2026-05-05 21:04 33.69387 -85.62997 21438 ft 399 kts 270°
2026-05-05 21:04 33.69202 -85.76430 22711 ft 407 kts 270°
2026-05-05 21:04 33.68988 -85.90123 23881 ft 413 kts 270°
2026-05-05 21:04 33.68763 -86.04012 24945 ft 418 kts 272°
2026-05-05 21:05 33.69856 -86.17951 25967 ft 422 kts 277°
2026-05-05 21:05 33.70922 -86.32006 27105 ft 421 kts 277°
2026-05-05 21:05 33.71990 -86.45914 27973 ft 416 kts 278°
2026-05-05 21:05 33.73007 -86.59296 27942 ft 402 kts 278°
2026-05-05 21:06 33.73996 -86.72562 28093 ft 395 kts 278°
2026-05-05 21:06 33.74965 -86.85813 28075 ft 400 kts 278°
2026-05-05 21:06 33.75922 -86.99071 27956 ft 399 kts 278°
2026-05-05 21:06 33.76852 -87.12126 27878 ft 395 kts 278°
2026-05-05 21:07 33.77778 -87.25154 27847 ft 393 kts 278°
2026-05-05 21:07 33.78675 -87.38189 27912 ft 387 kts 277°
2026-05-05 21:07 33.82572 -87.63525 28043 ft 383 kts 285°
2026-05-05 21:08 33.87736 -87.88560 27927 ft 387 kts 285°
2026-05-05 21:08 33.90307 -88.01092 27815 ft 388 kts 285°
2026-05-05 21:08 33.92858 -88.13602 27826 ft 384 kts 284°
2026-05-05 21:09 33.95405 -88.26136 27940 ft 381 kts 284°
2026-05-05 21:09 33.97923 -88.38600 28020 ft 383 kts 284°
2026-05-05 21:09 34.00436 -88.51105 27958 ft 385 kts 284°
2026-05-05 21:09 34.02929 -88.63608 27850 ft 386 kts 284°
2026-05-05 21:10 34.05373 -88.75961 27790 ft 385 kts 284°
2026-05-05 21:10 34.07833 -88.88449 27896 ft 381 kts 284°
2026-05-05 21:10 34.10281 -89.00928 28004 ft 379 kts 284°
2026-05-05 21:10 34.12718 -89.13429 27990 ft 382 kts 284°
2026-05-05 21:11 34.15151 -89.25943 27873 ft 385 kts 284°
2026-05-05 21:11 34.17564 -89.38444 27780 ft 384 kts 283°
2026-05-05 21:11 34.19945 -89.50947 27831 ft 380 kts 283°
2026-05-05 21:11 34.22793 -89.63264 27965 ft 378 kts 287°
2026-05-05 21:12 34.25833 -89.75503 27991 ft 380 kts 286°
2026-05-05 21:12 34.28793 -89.87792 27877 ft 383 kts 286°
2026-05-05 21:12 34.31744 -90.00087 27748 ft 383 kts 285°
2026-05-05 21:12 34.34678 -90.12381 27763 ft 380 kts 285°
2026-05-05 21:13 34.37588 -90.24660 27887 ft 376 kts 285°
2026-05-05 21:13 34.40451 -90.36790 27974 ft 377 kts 285°
2026-05-05 21:13 34.43382 -90.49215 27934 ft 379 kts 285°
2026-05-05 21:13 34.46248 -90.61487 27782 ft 381 kts 285°
2026-05-05 21:14 34.49109 -90.73770 27708 ft 380 kts 285°
2026-05-05 21:14 34.51910 -90.85862 27742 ft 376 kts 284°
2026-05-05 21:14 34.54729 -90.98089 27859 ft 374 kts 284°
2026-05-05 21:14 34.57535 -91.10339 27931 ft 374 kts 284°
2026-05-05 21:15 34.60330 -91.22580 27893 ft 377 kts 284°
2026-05-05 21:15 34.63123 -91.34854 27751 ft 379 kts 284°
2026-05-05 21:15 34.65905 -91.47157 27713 ft 378 kts 284°
2026-05-05 21:15 34.68654 -91.59433 27795 ft 375 kts 284°
2026-05-05 21:16 34.71402 -91.71705 27908 ft 373 kts 284°
2026-05-05 21:16 34.74136 -91.84011 27904 ft 375 kts 283°
2026-05-05 21:16 34.76816 -91.96121 27809 ft 378 kts 283°
2026-05-05 21:16 34.79535 -92.08445 27711 ft 379 kts 283°
2026-05-05 21:17 34.81175 -92.20944 27774 ft 373 kts 272°
2026-05-05 21:17 34.81467 -92.33625 27913 ft 372 kts 272°
2026-05-05 21:17 34.81773 -92.46309 27901 ft 374 kts 272°
2026-05-05 21:17 34.82064 -92.58845 27775 ft 376 kts 272°
2026-05-05 21:18 34.82325 -92.71523 27679 ft 376 kts 271°
2026-05-05 21:18 34.82588 -92.84192 27709 ft 372 kts 271°
2026-05-05 21:18 34.82836 -92.96824 27834 ft 370 kts 271°
2026-05-05 21:18 34.83072 -93.09484 27876 ft 373 kts 271°
2026-05-05 21:19 34.83294 -93.22114 27792 ft 375 kts 271°
2026-05-05 21:19 34.83505 -93.34562 27685 ft 374 kts 271°
2026-05-05 21:19 34.83697 -93.47158 27662 ft 371 kts 271°
2026-05-05 21:19 34.83867 -93.59750 27785 ft 368 kts 271°
2026-05-05 21:20 34.84041 -93.72319 27840 ft 371 kts 271°
2026-05-05 21:20 34.84202 -93.84909 27725 ft 374 kts 271°
2026-05-05 21:20 34.84338 -93.97500 27624 ft 373 kts 271°
2026-05-05 21:20 34.84466 -94.10127 27716 ft 370 kts 270°
2026-05-05 21:21 34.84585 -94.22685 27846 ft 368 kts 270°
2026-05-05 21:21 34.84681 -94.35079 27798 ft 371 kts 270°
2026-05-05 21:21 34.84772 -94.47612 27658 ft 372 kts 270°
2026-05-05 21:21 34.84852 -94.60150 27649 ft 370 kts 270°
2026-05-05 21:22 34.84910 -94.72638 27769 ft 366 kts 270°
2026-05-05 21:22 34.84944 -94.80952 27644 ft 368 kts 270°
2026-05-05 21:22 34.84990 -94.93457 27779 ft 366 kts 270°
2026-05-05 21:22 34.85013 -95.05944 27820 ft 367 kts 270°
2026-05-05 21:23 34.85045 -95.22472 27676 ft 366 kts 269°
2026-05-05 21:23 34.85048 -95.30911 27620 ft 370 kts 269°
2026-05-05 21:23 34.85036 -95.43205 27676 ft 365 kts 269°
2026-05-05 21:23 34.85017 -95.55631 27803 ft 365 kts 269°
2026-05-05 21:24 34.84985 -95.68088 27860 ft 367 kts 269°
2026-05-05 21:24 34.85147 -95.80534 27701 ft 370 kts 275°
2026-05-05 21:24 34.86274 -95.92864 27717 ft 363 kts 273°
2026-05-05 21:24 34.87326 -96.05125 27829 ft 363 kts 274°
2026-05-05 21:25 34.88403 -96.17384 27820 ft 365 kts 273°
2026-05-05 21:25 34.89456 -96.29698 27709 ft 367 kts 273°
2026-05-05 21:25 34.90501 -96.42006 27674 ft 365 kts 273°
2026-05-05 21:25 34.91536 -96.54295 27796 ft 362 kts 272°
2026-05-05 21:26 34.92536 -96.66420 27903 ft 363 kts 272°
2026-05-05 21:26 34.93542 -96.78722 27805 ft 366 kts 272°
2026-05-05 21:26 34.94546 -96.91050 27702 ft 367 kts 272°
2026-05-05 21:26 34.95533 -97.03390 27767 ft 363 kts 272°
2026-05-05 21:27 34.96508 -97.15732 27902 ft 362 kts 272°
2026-05-05 21:27 34.97465 -97.28038 27894 ft 366 kts 272°
2026-05-05 21:27 34.98404 -97.40246 27770 ft 367 kts 272°
2026-05-05 21:27 34.99334 -97.52587 27715 ft 365 kts 272°
2026-05-05 21:28 35.00256 -97.64914 27856 ft 363 kts 271°
2026-05-05 21:28 35.01173 -97.77275 27951 ft 363 kts 271°
2026-05-05 21:28 35.02074 -97.89651 27956 ft 367 kts 271°
2026-05-05 21:28 35.02957 -98.02041 27843 ft 369 kts 270°
2026-05-05 21:29 35.03842 -98.14472 27785 ft 367 kts 270°
2026-05-05 21:29 35.04709 -98.26866 27879 ft 364 kts 270°
2026-05-05 21:29 35.05557 -98.39292 27950 ft 365 kts 270°
2026-05-05 21:29 35.06383 -98.51676 27891 ft 368 kts 270°
2026-05-05 21:30 35.07195 -98.64076 27783 ft 368 kts 270°
2026-05-05 21:30 35.08004 -98.76306 27809 ft 366 kts 270°
2026-05-05 21:30 35.08822 -98.88840 27941 ft 363 kts 270°
2026-05-05 21:30 35.09590 -99.01070 27999 ft 365 kts 270°
2026-05-05 21:31 35.10370 -99.13467 27919 ft 368 kts 269°
2026-05-05 21:31 35.11127 -99.25895 27780 ft 369 kts 269°
2026-05-05 21:31 35.11873 -99.38304 27775 ft 365 kts 269°
2026-05-05 21:31 35.12613 -99.50717 27897 ft 364 kts 269°
2026-05-05 21:32 35.13333 -99.63204 27945 ft 367 kts 269°
2026-05-05 21:32 35.14044 -99.75696 27867 ft 370 kts 269°
2026-05-05 21:32 35.14756 -99.88227 27756 ft 371 kts 269°
2026-05-05 21:32 35.15449 -100.00743 27774 ft 367 kts 269°
2026-05-05 21:33 35.16129 -100.13048 27890 ft 366 kts 269°
2026-05-05 21:33 35.16786 -100.25560 27945 ft 367 kts 269°
2026-05-05 21:33 35.17438 -100.38011 27831 ft 369 kts 269°
2026-05-05 21:33 35.18080 -100.50490 27749 ft 368 kts 269°
2026-05-05 21:34 35.18692 -100.62943 27852 ft 366 kts 269°
2026-05-05 21:34 35.19304 -100.75446 27938 ft 366 kts 269°
2026-05-05 21:34 35.19895 -100.87945 27872 ft 369 kts 269°
2026-05-05 21:34 35.20474 -101.00441 27760 ft 370 kts 268°
2026-05-05 21:35 35.21052 -101.12774 27783 ft 366 kts 268°
2026-05-05 21:35 35.21626 -101.25238 27906 ft 365 kts 268°
2026-05-05 21:35 35.22169 -101.37713 27939 ft 368 kts 268°
2026-05-05 21:35 35.22689 -101.50177 27838 ft 370 kts 268°
2026-05-05 21:36 35.23213 -101.62687 27875 ft 367 kts 268°
2026-05-05 21:36 35.23799 -101.75133 27995 ft 365 kts 269°
2026-05-05 21:36 35.25378 -102.00124 27863 ft 370 kts 269°
2026-05-05 21:37 35.26134 -102.12654 27707 ft 370 kts 269°
2026-05-05 21:37 35.26876 -102.24979 27787 ft 366 kts 269°
2026-05-05 21:37 35.27591 -102.37447 27913 ft 365 kts 269°
2026-05-05 21:37 35.28306 -102.49934 27899 ft 369 kts 268°
2026-05-05 21:38 35.29008 -102.62466 27766 ft 371 kts 268°
2026-05-05 21:38 35.29701 -102.74995 27736 ft 368 kts 268°
2026-05-05 21:38 35.30380 -102.87504 27852 ft 363 kts 268°
2026-05-05 21:38 35.31048 -102.99991 27908 ft 367 kts 268°
2026-05-05 21:39 35.31690 -103.12505 27783 ft 369 kts 268°
2026-05-05 21:39 35.32306 -103.24845 27701 ft 368 kts 268°
2026-05-05 21:39 35.32944 -103.37327 27835 ft 364 kts 268°
2026-05-05 21:39 35.33546 -103.49771 27979 ft 365 kts 268°
2026-05-05 21:40 35.34151 -103.62231 27931 ft 366 kts 268°
2026-05-05 21:40 35.34731 -103.74662 27771 ft 368 kts 268°
2026-05-05 21:40 35.35292 -103.87112 27724 ft 365 kts 267°
2026-05-05 21:40 35.35865 -103.99578 27774 ft 362 kts 267°
2026-05-05 21:41 35.36413 -104.12020 27823 ft 365 kts 267°
2026-05-05 21:41 35.36936 -104.24489 27708 ft 368 kts 267°
2026-05-05 21:41 35.37448 -104.36961 27584 ft 367 kts 267°
2026-05-05 21:41 35.37956 -104.49256 27619 ft 364 kts 267°
2026-05-05 21:42 35.38449 -104.61677 27739 ft 362 kts 266°
2026-05-05 21:42 35.38941 -104.74087 27758 ft 364 kts 266°
2026-05-05 21:42 35.39404 -104.86498 27644 ft 367 kts 266°
2026-05-05 21:42 35.39848 -104.98964 27551 ft 367 kts 266°
2026-05-05 21:43 35.40293 -105.11399 27729 ft 363 kts 266°
2026-05-05 21:43 35.40725 -105.23842 27861 ft 363 kts 266°
2026-05-05 21:43 35.41137 -105.36303 27861 ft 368 kts 266°
2026-05-05 21:43 35.41534 -105.48834 27708 ft 370 kts 266°
2026-05-05 21:44 35.41940 -105.61250 27629 ft 369 kts 266°
2026-05-05 21:44 35.42305 -105.73753 27706 ft 364 kts 266°
2026-05-05 21:44 35.42678 -105.86225 27851 ft 365 kts 266°
2026-05-05 21:44 35.43026 -105.98695 28010 ft 367 kts 265°
2026-05-05 21:45 35.43369 -106.11210 27886 ft 368 kts 265°
2026-05-05 21:45 35.43707 -106.23677 27756 ft 366 kts 265°
2026-05-05 21:45 35.44023 -106.36131 27795 ft 364 kts 265°
2026-05-05 21:45 35.44308 -106.48437 27859 ft 364 kts 265°
2026-05-05 21:46 35.44597 -106.60907 27848 ft 366 kts 265°
2026-05-05 21:46 35.44872 -106.73415 27712 ft 368 kts 265°
2026-05-05 21:46 35.45138 -106.85965 27654 ft 367 kts 265°
2026-05-05 21:46 35.45386 -106.98435 27790 ft 364 kts 265°
2026-05-05 21:47 35.45634 -107.10930 27898 ft 366 kts 265°
2026-05-05 21:47 35.45854 -107.23458 27829 ft 368 kts 264°
2026-05-05 21:47 35.46050 -107.35994 27648 ft 370 kts 265°
2026-05-05 21:47 35.46258 -107.48505 27735 ft 368 kts 264°
2026-05-05 21:48 35.46447 -107.61047 27852 ft 367 kts 264°
2026-05-05 21:48 35.46617 -107.73617 27793 ft 367 kts 264°
2026-05-05 21:48 35.46778 -107.86152 27849 ft 368 kts 264°
2026-05-05 21:48 35.46933 -107.98553 27851 ft 368 kts 264°
2026-05-05 21:49 35.47073 -108.11110 27823 ft 367 kts 264°
2026-05-05 21:49 35.47186 -108.23640 27815 ft 366 kts 264°
2026-05-05 21:49 35.47306 -108.36157 27827 ft 367 kts 264°
2026-05-05 21:49 35.47400 -108.48668 27828 ft 366 kts 263°
2026-05-05 21:50 35.47466 -108.61154 27819 ft 367 kts 263°
2026-05-05 21:50 35.47557 -108.73670 27814 ft 367 kts 263°
2026-05-05 21:50 35.47608 -108.86213 28027 ft 368 kts 263°
2026-05-05 21:50 35.47662 -108.98842 27968 ft 371 kts 264°
2026-05-05 21:51 35.47705 -109.11386 27935 ft 373 kts 263°
2026-05-05 21:51 35.47741 -109.24222 27895 ft 377 kts 264°
2026-05-05 21:51 35.47779 -109.37127 27889 ft 380 kts 264°
2026-05-05 21:51 35.47787 -109.50124 27871 ft 381 kts 263°
2026-05-05 21:52 35.47769 -109.76159 27873 ft 382 kts 263°
2026-05-05 21:52 35.47743 -109.89182 27913 ft 382 kts 263°
2026-05-05 21:52 35.47699 -110.02212 27898 ft 381 kts 263°
2026-05-05 21:53 35.47646 -110.15064 27899 ft 381 kts 263°
2026-05-05 21:53 35.47581 -110.28118 27839 ft 384 kts 263°
2026-05-05 21:53 35.47493 -110.41319 27903 ft 393 kts 264°
2026-05-05 21:53 35.47386 -110.54995 27987 ft 402 kts 264°
2026-05-05 21:54 35.47269 -110.68731 27934 ft 404 kts 264°
2026-05-05 21:54 35.47136 -110.82494 27838 ft 406 kts 265°
2026-05-05 21:54 35.46978 -110.96355 27720 ft 411 kts 265°
2026-05-05 21:54 35.46813 -111.10265 27664 ft 409 kts 264°
2026-05-05 21:55 35.46624 -111.24192 27761 ft 411 kts 265°
2026-05-05 21:55 35.46432 -111.38275 27887 ft 408 kts 265°
2026-05-05 21:55 35.46204 -111.52154 27970 ft 410 kts 265°
2026-05-05 21:55 35.45982 -111.66194 27972 ft 413 kts 265°
2026-05-05 21:56 35.45730 -111.80361 27911 ft 425 kts 265°
2026-05-05 21:56 35.46771 -111.94969 27831 ft 437 kts 275°
2026-05-05 21:56 35.48561 -112.09580 27781 ft 437 kts 275°
2026-05-05 21:56 35.50367 -112.24211 27753 ft 437 kts 276°
2026-05-05 21:57 35.52175 -112.38879 27674 ft 435 kts 275°
2026-05-05 21:57 35.53964 -112.53568 27618 ft 436 kts 276°
2026-05-05 21:57 35.55757 -112.68432 27683 ft 441 kts 276°
2026-05-05 21:57 35.57535 -112.83380 27755 ft 436 kts 276°
2026-05-05 21:58 35.59275 -112.98103 27824 ft 436 kts 276°
2026-05-05 21:58 35.60097 -113.05082 27831 ft 441 kts 276°
2026-05-05 21:58 35.60532 -113.08810 27817 ft 438 kts 276°
2026-05-05 21:58 35.60958 -113.12519 27813 ft 437 kts 276°
2026-05-05 21:59 35.61378 -113.16175 27808 ft 438 kts 277°
2026-05-05 21:59 35.61810 -113.19931 27802 ft 438 kts 277°
2026-05-05 21:59 35.62231 -113.23597 27790 ft 439 kts 276°
2026-05-05 21:59 35.62658 -113.27320 27736 ft 440 kts 277°
2026-05-05 22:00 35.63089 -113.31061 27283 ft 441 kts 278°
2026-05-05 22:00 35.63520 -113.34782 26617 ft 438 kts 277°
2026-05-05 22:00 35.63947 -113.38489 25934 ft 436 kts 277°
2026-05-05 22:00 35.64366 -113.42180 25246 ft 435 kts 277°
2026-05-05 22:01 35.64781 -113.45866 24552 ft 436 kts 278°
2026-05-05 22:01 35.65197 -113.49572 23832 ft 438 kts 278°
2026-05-05 22:01 35.65681 -113.53236 23204 ft 446 kts 281°
2026-05-05 22:01 35.66280 -113.57031 22546 ft 454 kts 282°
2026-05-05 22:02 35.66936 -113.60822 21942 ft 451 kts 282°
2026-05-05 22:02 35.67603 -113.64580 21322 ft 447 kts 282°
2026-05-05 22:02 35.68258 -113.68308 20711 ft 444 kts 282°
2026-05-05 22:02 35.68890 -113.72006 20111 ft 440 kts 281°
2026-05-05 22:03 35.69498 -113.75673 19516 ft 435 kts 281°
2026-05-05 22:03 35.70079 -113.79257 18931 ft 430 kts 281°
2026-05-05 22:03 35.70654 -113.82851 18350 ft 426 kts 281°
2026-05-05 22:03 35.71218 -113.86404 17735 ft 421 kts 281°
2026-05-05 22:04 35.71779 -113.89926 17352 ft 418 kts 281°
2026-05-05 22:04 35.72340 -113.93415 16948 ft 408 kts 281°
2026-05-05 22:04 35.72879 -113.96766 16809 ft 391 kts 281°
2026-05-05 22:04 35.73397 -113.99996 16681 ft 376 kts 281°
2026-05-05 22:05 35.73895 -114.03102 16541 ft 363 kts 281°
2026-05-05 22:05 35.74375 -114.06092 16416 ft 350 kts 281°
2026-05-05 22:05 35.74836 -114.08979 16298 ft 337 kts 281°
2026-05-05 22:05 35.75280 -114.11770 16136 ft 327 kts 281°
2026-05-05 22:06 35.75745 -114.14448 15910 ft 320 kts 287°
2026-05-05 22:06 35.76578 -114.16977 15761 ft 319 kts 298°
2026-05-05 22:06 35.77643 -114.19369 15447 ft 318 kts 299°
2026-05-05 22:06 35.78705 -114.21749 15144 ft 316 kts 298°
2026-05-05 22:07 35.79760 -114.24123 14837 ft 315 kts 298°
2026-05-05 22:07 35.80807 -114.26496 14521 ft 313 kts 298°
2026-05-05 22:07 35.81844 -114.28851 14222 ft 312 kts 298°
2026-05-05 22:07 35.82876 -114.31204 13912 ft 311 kts 298°
2026-05-05 22:08 35.83923 -114.33498 13612 ft 310 kts 303°
2026-05-05 22:08 35.85217 -114.35622 13286 ft 310 kts 307°
2026-05-05 22:08 35.86534 -114.37722 12966 ft 308 kts 307°
2026-05-05 22:08 35.87841 -114.39805 12667 ft 305 kts 307°
2026-05-05 22:09 35.89131 -114.41865 12381 ft 301 kts 307°
2026-05-05 22:09 35.90403 -114.43901 12091 ft 298 kts 307°
2026-05-05 22:09 35.91664 -114.45922 11806 ft 295 kts 307°
2026-05-05 22:09 35.92914 -114.47928 11524 ft 294 kts 307°
2026-05-05 22:10 35.94141 -114.49899 11250 ft 293 kts 307°
2026-05-05 22:10 35.95382 -114.51891 10972 ft 292 kts 307°
2026-05-05 22:10 35.96614 -114.53872 10688 ft 289 kts 307°
2026-05-05 22:10 35.97828 -114.55841 10413 ft 288 kts 306°
2026-05-05 22:11 35.99035 -114.57806 10136 ft 286 kts 306°
2026-05-05 22:11 36.00237 -114.59763 9851 ft 285 kts 306°
2026-05-05 22:11 36.01430 -114.61703 9563 ft 281 kts 307°
2026-05-05 22:11 36.02606 -114.63610 9294 ft 277 kts 306°
2026-05-05 22:12 36.03751 -114.65490 9030 ft 271 kts 303°
2026-05-05 22:12 36.04709 -114.67432 8762 ft 265 kts 300°
2026-05-05 22:12 36.05644 -114.69346 8501 ft 261 kts 300°
2026-05-05 22:12 36.06580 -114.71252 8246 ft 257 kts 298°
2026-05-05 22:13 36.07227 -114.73276 7985 ft 252 kts 279°
2026-05-05 22:13 36.07338 -114.75411 7691 ft 248 kts 269°
2026-05-05 22:13 36.07333 -114.77516 7467 ft 243 kts 269°
2026-05-05 22:13 36.07333 -114.79591 7182 ft 241 kts 269°
2026-05-05 22:14 36.07338 -114.81658 6878 ft 240 kts 269°
2026-05-05 22:14 36.07342 -114.83713 6570 ft 239 kts 269°
2026-05-05 22:14 36.07346 -114.85761 6266 ft 237 kts 269°
2026-05-05 22:14 36.07349 -114.87110 6057 ft 236 kts 269°
2026-05-05 22:15 36.07352 -114.89136 5734 ft 235 kts 269°
2026-05-05 22:15 36.07355 -114.91158 5425 ft 235 kts 269°
2026-05-05 22:15 36.07357 -114.93175 5121 ft 233 kts 269°
2026-05-05 22:15 36.07360 -114.95151 4818 ft 228 kts 269°
2026-05-05 22:16 36.07362 -114.97077 4526 ft 217 kts 269°
2026-05-05 22:16 36.07364 -114.98875 4271 ft 202 kts 269°
2026-05-05 22:16 36.07365 -115.00554 4024 ft 190 kts 269°
2026-05-05 22:16 36.07365 -115.02119 3783 ft 178 kts 269°
2026-05-05 22:17 36.07366 -115.03581 3564 ft 164 kts 269°
2026-05-05 22:17 36.07366 -115.04932 3354 ft 153 kts 269°
2026-05-05 22:17 36.07366 -115.06229 3151 ft 150 kts 269°
2026-05-05 22:17 36.07366 -115.07512 2943 ft 149 kts 269°
2026-05-05 22:18 36.07366 -115.08794 2732 ft 149 kts 270°
2026-05-05 22:18 36.07366 -115.10059 2522 ft 149 kts 270°
2026-05-05 22:18 36.07364 -115.11328 2316 ft 149 kts 269°
2026-05-05 22:18 36.07365 -115.12609 2111 ft 149 kts 270°
2026-05-05 22:19 36.07363 -115.13757 2089 ft 99 kts 270°
2026-05-05 22:19 36.07365 -115.14270 2109 ft 29 kts 274°
2026-05-05 22:19 36.07421 -115.14480 2115 ft 24 kts 297°
2026-05-05 22:19 36.07497 -115.14630 2112 ft 18 kts 313°
2026-05-05 22:20 36.07601 -115.14653 2108 ft 16 kts
2026-05-05 22:20 36.08015 -115.13930 2076 ft 0 kts 314°